| time (UTC) | temp C | wind direction | speed KPH | gust KPH | rain 1hr cm | rain 24hr cm | rain mn cm | humidity % | barometer mb |
| 20260506151231 | 16 | 171 | 9.7 | 20.9 | 0.00 | 0.00 | 0.00 | 75 | 1015.2 |
| 20260506150231 | 16 | 144 | 12.9 | 16.1 | 0.00 | 0.00 | 0.00 | 74 | 1015.3 |
| 20260506145230 | 16 | 102 | 9.7 | 20.9 | 0.00 | 0.00 | 0.00 | 71 | 1015.3 |
| 20260506144230 | 17 | 89 | 9.7 | 20.9 | 0.00 | 0.00 | 0.00 | 70 | 1015.3 |
| 20260506143230 | 17 | 140 | 12.9 | 17.7 | 0.00 | 0.00 | 0.00 | 71 | 1015.4 |
| 20260506142229 | 17 | 226 | 3.2 | 17.7 | 0.00 | 0.03 | 0.00 | 73 | 1015.7 |
| 20260506141243 | 17 | 119 | 9.7 | 22.5 | 0.00 | 0.03 | 0.00 | 70 | 1015.7 |
| 20260506140710 | 17 | 148 | 8.0 | 17.7 | 0.00 | 0.03 | 0.00 | 71 | 1015.6 |
| 20260506135230 | 17 | 112 | 3.2 | 20.9 | 0.00 | 0.05 | 0.00 | 71 | 1015.5 |
| 20260506134715 | 17 | 157 | 6.4 | 20.9 | 0.00 | 0.08 | 0.00 | 70 | 1016.0 |
| 20260506133230 | 17 | 135 | 9.7 | 16.1 | 0.00 | 0.08 | 0.00 | 69 | 1016.1 |
| 20260506132229 | 17 | 131 | 4.8 | 14.5 | 0.00 | 0.18 | 0.00 | 68 | 1016.2 |
| 20260506131230 | 17 | 190 | 8.0 | 20.9 | 0.00 | 0.20 | 0.00 | 70 | 1016.1 |
| 20260506130230 | 17 | 165 | 12.9 | 17.7 | 0.00 | 0.20 | 0.00 | 68 | 1016.1 |
| 20260506125230 | 18 | 122 | 3.2 | 6.4 | 0.00 | 0.20 | 0.00 | 56 | 1016.3 |
| 20260506124231 | 19 | 148 | 6.4 | 11.3 | 0.00 | 0.20 | 0.00 | 50 | 1016.3 |
| 20260506123231 | 18 | 298 | 0.0 | 14.5 | 0.00 | 0.20 | 0.00 | 55 | 1016.6 |
| 20260506122230 | 18 | 277 | 1.6 | 12.9 | 0.00 | 0.20 | 0.00 | 56 | 1016.5 |
| 20260506121230 | 17 | 8 | 4.8 | 12.9 | 0.00 | 0.20 | 0.00 | 58 | 1016.4 |
| 20260506120230 | 17 | 349 | 4.8 | 16.1 | 0.00 | 0.20 | 0.00 | 58 | 1016.6 |
| 20260506115229 | 17 | 99 | 3.2 | 14.5 | 0.00 | 0.20 | 0.00 | 61 | 1016.8 |
| 20260506114230 | 17 | 69 | 3.2 | 9.7 | 0.00 | 0.20 | 0.00 | 62 | 1016.9 |
| 20260506113720 | 16 | 341 | 4.8 | 9.7 | 0.00 | 0.20 | 0.00 | 63 | 1016.9 |
| 20260506112230 | 16 | 148 | 3.2 | 9.7 | 0.00 | 0.20 | 0.00 | 65 | 1017.0 |
| 20260506111230 | 16 | 38 | 4.8 | 9.7 | 0.00 | 0.20 | 0.00 | 66 | 1017.0 |
| 20260506110230 | 16 | 108 | 4.8 | 12.9 | 0.00 | 0.20 | 0.00 | 66 | 1017.3 |
| 20260506105230 | 17 | 307 | 9.7 | 9.7 | 0.00 | 0.20 | 0.00 | 67 | 1017.3 |
| 20260506104230 | 16 | 116 | 1.6 | 9.7 | 0.00 | 0.20 | 0.00 | 68 | 1017.3 |
| 20260506103230 | 16 | 232 | 3.2 | 9.7 | 0.00 | 0.20 | 0.00 | 72 | 1017.3 |
| 20260506102230 | 16 | 314 | 1.6 | 4.8 | 0.00 | 0.20 | 0.00 | 68 | 1016.9 |
| 20260506101704 | 15 | 88 | 1.6 | 12.9 | 0.00 | 0.20 | 0.00 | 68 | 1017.3 |
| 20260506100729 | 16 | 127 | 8.0 | 12.9 | 0.00 | 0.20 | 0.00 | 72 | 1016.9 |
| 20260506095711 | 16 | 103 | 3.2 | 4.8 | 0.00 | 0.25 | 0.00 | 71 | 1017.0 |
| 20260506094231 | 15 | 155 | 3.2 | 6.4 | 0.00 | 0.30 | 0.00 | 74 | 1016.9 |
| 20260506093230 | 15 | 156 | 1.6 | 6.4 | 0.00 | 0.33 | 0.00 | 76 | 1016.8 |
| 20260506092230 | 15 | 182 | 3.2 | 6.4 | 0.00 | 0.33 | 0.00 | 76 | 1016.7 |
| 20260506091720 | 14 | 154 | 3.2 | 6.4 | 0.00 | 0.36 | 0.00 | 76 | 1016.5 |
| 20260506090230 | 14 | 167 | 1.6 | 4.8 | 0.00 | 0.41 | 0.00 | 78 | 1016.6 |
| 20260506085230 | 14 | 141 | 3.2 | 4.8 | 0.00 | 0.46 | 0.00 | 81 | 1016.4 |
| 20260506084230 | 14 | 132 | 1.6 | 4.8 | 0.00 | 0.48 | 0.00 | 82 | 1016.3 |
| 20260506083231 | 13 | 170 | 3.2 | 4.8 | 0.00 | 0.53 | 0.00 | 80 | 1016.3 |
| 20260506082230 | 13 | 191 | 1.6 | 4.8 | 0.00 | 0.56 | 0.00 | 75 | 1016.2 |
| 20260506081232 | 13 | 212 | 0.0 | 4.8 | 0.00 | 0.58 | 0.00 | 78 | 1016.1 |
| 20260506080230 | 13 | 162 | 1.6 | 9.7 | 0.00 | 0.58 | 0.00 | 78 | 1015.9 |
| 20260506073232 | 13 | 16 | 3.2 | 4.8 | 0.00 | 0.66 | 0.00 | 79 | 1015.6 |
| 20260506072705 | 13 | 346 | 4.8 | 11.3 | 0.00 | 0.69 | 0.00 | 77 | 1015.5 |
| 20260506071232 | 12 | 349 | 3.2 | 11.3 | 0.00 | 0.69 | 0.00 | 80 | 1015.4 |
| 20260506070233 | 12 | 355 | 4.8 | 11.3 | 0.00 | 0.71 | 0.00 | 80 | 1015.3 |
| 20260506062231 | 12 | 349 | 4.8 | 6.4 | 0.00 | 0.79 | 0.00 | 85 | 1015.2 |
| 20260506060231 | 12 | 333 | 4.8 | 6.4 | 0.00 | 0.81 | 0.00 | 87 | 1014.8 |
| 20260506051231 | 12 | 241 | 0.0 | 4.8 | 0.00 | 0.89 | 0.00 | 91 | 1015.2 |
| 20260506050231 | 12 | 347 | 0.0 | 6.4 | 0.00 | 0.89 | 0.00 | 91 | 1015.1 |
| 20260506044232 | 12 | 342 | 1.6 | 4.8 | 0.00 | 0.91 | 0.00 | 91 | 1015.3 |
| 20260506043232 | 12 | 328 | 0.0 | 3.2 | 0.00 | 0.91 | 0.00 | 91 | 1015.3 |
| 20260506042233 | 13 | 347 | 1.6 | 1.6 | 0.00 | 0.91 | 0.00 | 90 | 1015.2 |
| 20260506041233 | 13 | 180 | 0.0 | 3.2 | 0.00 | 0.94 | 0.00 | 89 | 1015.2 |
| 20260506040231 | 13 | 24 | 3.2 | 6.4 | 0.00 | 0.97 | 0.00 | 88 | 1014.8 |
| 20260506035232 | 12 | 352 | 1.6 | 6.4 | 0.00 | 0.99 | 0.00 | 89 | 1014.6 |
| 20260506034231 | 12 | 308 | 0.0 | 4.8 | 0.00 | 1.02 | 0.00 | 90 | 1014.7 |
| 20260506033235 | 12 | 355 | 1.6 | 4.8 | 0.00 | 1.07 | 0.00 | 91 | 1014.7 |
| 20260506032700 | 13 | 356 | 3.2 | 4.8 | 0.00 | 1.12 | 0.00 | 92 | 1015.1 |
| 20260506031710 | 13 | 0 | 0.0 | 4.8 | 0.00 | 1.19 | 0.00 | 92 | 1014.8 |
| 20260506030220 | 13 | 310 | 0.0 | 1.6 | 0.00 | 1.24 | 0.00 | 92 | 1014.9 |
| 20260506025206 | 13 | 145 | 0.0 | 6.4 | 0.00 | 1.30 | 0.00 | 91 | 1015.1 |
| 20260506024208 | 13 | 5 | 0.0 | 3.2 | 0.00 | 1.32 | 0.00 | 89 | 1015.1 |
| 20260506023210 | 13 | 272 | 1.6 | 4.8 | 0.00 | 1.35 | 0.00 | 89 | 1015.2 |
| 20260506022206 | 13 | 8 | 1.6 | 3.2 | 0.00 | 1.35 | 0.00 | 91 | 1015.3 |
| 20260506021208 | 13 | 350 | 1.6 | 4.8 | 0.00 | 1.37 | 0.00 | 90 | 1015.4 |
| 20260506020206 | 13 | 345 | 1.6 | 3.2 | 0.00 | 1.37 | 0.00 | 90 | 1015.6 |
| 20260506015642 | 13 | 353 | 0.0 | 4.8 | 0.00 | 1.40 | 0.00 | 90 | 1015.6 |
| 20260506014142 | 13 | 344 | 1.6 | 4.8 | 0.00 | 1.40 | 0.00 | 90 | 1015.5 |
| 20260506013617 | 13 | 339 | 3.2 | 4.8 | 0.00 | 1.40 | 0.00 | 91 | 1015.5 |
| 20260506012144 | 13 | 12 | 0.0 | 6.4 | 0.00 | 1.40 | 0.00 | 87 | 1015.8 |
| 20260506011143 | 13 | 352 | 3.2 | 4.8 | 0.00 | 1.40 | 0.00 | 90 | 1015.7 |
| 20260506010142 | 13 | 341 | 4.8 | 6.4 | 0.00 | 1.40 | 0.00 | 89 | 1015.9 |
| 20260506005142 | 13 | 342 | 1.6 | 6.4 | 0.00 | 1.40 | 0.00 | 89 | 1015.7 |
| 20260506004143 | 13 | 343 | 3.2 | 4.8 | 0.00 | 1.40 | 0.00 | 89 | 1015.9 |
| 20260506003142 | 13 | 343 | 3.2 | 6.4 | 0.00 | 1.40 | 0.00 | 88 | 1015.9 |
| 20260506002143 | 13 | 343 | 4.8 | 6.4 | 0.00 | 1.42 | 0.00 | 90 | 1015.9 |
| 20260506001627 | 13 | 357 | 3.2 | 6.4 | 0.00 | 1.42 | 0.00 | 89 | 1015.9 |
| 20260506000625 | 13 | 337 | 6.4 | 6.4 | 0.00 | 1.42 | 0.00 | 92 | 1015.8 |
| 20260505235624 | 13 | 327 | 3.2 | 6.4 | 0.00 | 1.42 | 0.00 | 92 | 1016.0 |
| 20260505234131 | 13 | 26 | 3.2 | 6.4 | 0.00 | 1.42 | 0.00 | 94 | 1016.0 |
| 20260505233130 | 13 | 352 | 4.8 | 4.8 | 0.00 | 1.45 | 0.00 | 95 | 1016.1 |
| 20260505232608 | 13 | 69 | 0.0 | 6.4 | 0.00 | 1.45 | 0.00 | 95 | 1015.9 |
| 20260505232106 | 14 | 17 | 0.0 | 1.6 | 0.00 | 1.45 | 0.00 | 95 | 1015.9 |
| 20260505230131 | 14 | 71 | 0.0 | 3.2 | 0.00 | 1.45 | 0.00 | 95 | 1016.1 |
| 20260505225605 | 14 | 163 | 0.0 | 6.4 | 0.00 | 1.47 | 1.45 | 95 | 1015.9 |
| 20260505224130 | 14 | 229 | 3.2 | 3.2 | 0.00 | 1.50 | 1.45 | 96 | 1015.9 |
| 20260505223130 | 14 | 159 | 1.6 | 4.8 | 0.00 | 1.50 | 1.45 | 96 | 1016.0 |
| 20260505222131 | 14 | 232 | 0.0 | 3.2 | 0.00 | 1.52 | 1.45 | 96 | 1016.1 |
| 20260505221131 | 14 | 14 | 0.0 | 1.6 | 0.00 | 1.55 | 1.45 | 96 | 1016.1 |
| 20260505220131 | 14 | 0 | 0.0 | 1.6 | 0.00 | 1.55 | 1.45 | 96 | 1016.1 |
| 20260505215107 | 14 | 24 | 0.0 | 1.6 | 0.00 | 1.55 | 1.45 | 96 | 1015.9 |
| 20260505214056 | 14 | 144 | 1.6 | 3.2 | 0.00 | 1.55 | 1.45 | 96 | 1016.0 |
| 20260505213534 | 14 | 341 | 1.6 | 1.6 | 0.00 | 1.55 | 1.45 | 96 | 1015.9 |
| 20260505212054 | 14 | 340 | 0.0 | 1.6 | 0.00 | 1.55 | 1.45 | 96 | 1015.8 |
| 20260505211054 | 14 | 20 | 1.6 | 1.6 | 0.00 | 1.55 | 1.45 | 96 | 1015.9 |
| 20260505210120 | 14 | 349 | 0.0 | 3.2 | 0.00 | 1.55 | 1.45 | 96 | 1015.8 |
| 20260505205056 | 14 | 107 | 1.6 | 3.2 | 0.00 | 1.55 | 1.45 | 96 | 1015.7 |
| 20260505204055 | 14 | 24 | 1.6 | 1.6 | 0.00 | 1.55 | 1.45 | 96 | 1015.7 |
| 20260505203057 | 14 | 123 | 0.0 | 3.2 | 0.00 | 1.55 | 1.45 | 96 | 1015.8 |
| 20260505202054 | 15 | 2 | 0.0 | 4.8 | 0.00 | 1.55 | 1.45 | 95 | 1015.5 |
| 20260505201054 | 15 | 184 | 4.8 | 4.8 | 0.00 | 1.57 | 1.45 | 95 | 1015.6 |
| 20260505200104 | 15 | 129 | 0.0 | 3.2 | 0.00 | 1.60 | 1.45 | 95 | 1015.5 |
| 20260505195532 | 15 | 193 | 0.0 | 4.8 | 0.00 | 1.60 | 1.45 | 94 | 1015.4 |
| 20260505194055 | 15 | 232 | 1.6 | 3.2 | 0.00 | 1.60 | 1.45 | 94 | 1015.3 |
| 20260505193055 | 15 | 201 | 3.2 | 9.7 | 0.00 | 1.60 | 1.45 | 93 | 1015.1 |
| 20260505192055 | 15 | 246 | 4.8 | 11.3 | 0.00 | 1.60 | 1.45 | 92 | 1014.9 |
| 20260505191539 | 15 | 78 | 0.0 | 6.4 | 0.00 | 1.60 | 1.45 | 94 | 1015.1 |
| 20260505190055 | 15 | 218 | 3.2 | 4.8 | 0.00 | 1.60 | 1.45 | 93 | 1014.8 |
| 20260505185537 | 15 | 142 | 4.8 | 9.7 | 0.00 | 1.60 | 1.45 | 93 | 1014.9 |
| 20260505184054 | 15 | 206 | 3.2 | 4.8 | 0.00 | 1.60 | 1.45 | 93 | 1014.9 |
| 20260505183054 | 15 | 30 | 1.6 | 4.8 | 0.00 | 1.60 | 1.45 | 93 | 1015.1 |
| 20260505182054 | 16 | 120 | 0.0 | 6.4 | 0.00 | 1.60 | 1.45 | 92 | 1015.1 |
| 20260505181053 | 16 | 192 | 1.6 | 4.8 | 0.00 | 1.60 | 1.45 | 92 | 1015.1 |
| 20260505180523 | 16 | 162 | 1.6 | 4.8 | 0.00 | 1.60 | 1.45 | 91 | 1014.9 |
| 20260505175043 | 16 | 96 | 0.0 | 9.7 | 0.00 | 1.60 | 1.45 | 90 | 1015.1 |
| 20260505174042 | 17 | 108 | 1.6 | 9.7 | 0.00 | 1.60 | 1.45 | 90 | 1015.3 |
| 20260505173042 | 17 | 156 | 0.0 | 11.3 | 0.00 | 1.60 | 1.45 | 87 | 1015.3 |
| 20260505172043 | 17 | 163 | 3.2 | 9.7 | 0.00 | 1.60 | 1.45 | 87 | 1015.1 |
| 20260505171042 | 16 | 146 | 0.0 | 3.2 | 0.00 | 1.60 | 1.45 | 90 | 1015.1 |
| 20260505170043 | 16 | 150 | 3.2 | 6.4 | 0.00 | 1.60 | 1.45 | 91 | 1015.2 |
| 20260505165041 | 17 | 164 | 6.4 | 6.4 | 0.00 | 1.60 | 1.45 | 91 | 1015.1 |
| 20260505164042 | 16 | 143 | 1.6 | 6.4 | 0.00 | 1.60 | 1.45 | 93 | 1015.2 |
| 20260505163043 | 16 | 155 | 3.2 | 9.7 | 0.00 | 1.60 | 1.45 | 95 | 1015.3 |
| 20260505162041 | 16 | 187 | 4.8 | 9.7 | 0.00 | 1.60 | 1.45 | 95 | 1015.3 |
| 20260505161043 | 16 | 127 | 4.8 | 9.7 | 0.00 | 1.60 | 1.45 | 95 | 1015.4 |
| 20260505160518 | 16 | 294 | 4.8 | 9.7 | 0.00 | 1.60 | 1.45 | 95 | 1015.4 |
| 20260505153043 | 15 | 101 | 1.6 | 4.8 | 0.00 | 1.60 | 1.45 | 96 | 1015.6 |
| 20260505152042 | 15 | 148 | 1.6 | 6.4 | 0.03 | 1.60 | 1.45 | 96 | 1015.6 |